Погода Старая Русса

Погода Старая Русса : погода сейчас, прогноз погоды и архив. Всё, что Вы хотите узнать о погоде Старая Русса!

Хотите узнать прогноз погоды Старая Русса? Тогда Вам сюда: Погода Старая Русса

Поиск расширенной информации на нашем сайте:

Другие новости

Новости СМИ2

Главная страница сайта

Новости сайта

03.07.2017

Напоминаем, что на нашем специализированном сайте Метеоцентр.Азия вы можете получить высокодетализированные автоматические прогнозы погоды по пунктам России, СНГ и мира в авиационном формате (включающие направление и скорость ветра, видимость, явления погоды, количество и форму облачности, нижнюю и верхнюю границу облачности).

Рекомендуем: Смотрите подробности грузоперевозки по европе у нас.

Погода Старая Русса - сегодня

Время (UTC), дата Ветер
(°,м/с) 
Видим.   Явления Облачность Т
(°С)
Тd
(°С)
f(%) Тe
(°С)
Pmin
(гПа)
dP
(гПа)
Po
(мм)
O2
(г/м3)
Тmin Tmax R s Состояние
почвы
09 13.01.18 240 (ЮЗ) 20000 м    10/10 150 м 
[St]
-7.7 -8.4 95 -9  1046  -0.3  782  325           
12 13.01.18 220 (ЮЗ) 20000 м    10/10 150 м 
[St]
-7.7 -8.4 95 -9  1045.3  -0.6  782  325           
15 13.01.18 240 (ЮЗ) 20000 м    10/10 180 м 
[St]
-8 -8.7 95 -10  1045  -0.3  781  325           
18 13.01.18 240 (ЮЗ) 20000 м    10/10 180 м 
[St]
-8.1 -9.1 92 -8  1044.6  -0.4  781  325    -7.4       
21 13.01.18 340 (С) 20000 м    10/10 180 м 
[St]
-8.3 -9.2 93 -8  1044.7  -0.1  781  326           
00 14.01.18 230 (ЮЗ) 10 км  слаб. снег  10/10 180 м 
[Frnb|Ns]
-8.1 -8.9 94 -10  1044  -0.7  781  325           
03 14.01.18 260 (З) 20000 м  {снег}  10/10 180 м 
[St]
-8 -9 93 -8  1043.7  -0.3  780  325  -8.3    0.0     
06 14.01.18 240 (ЮЗ) 10 км  слаб. снег  10/10 210 м 
[Frnb|Ns]
-7.7 -8.7 93 -7  1043.1  -0.5  780  324  -8.3    0.0  равномерный
сухой снег
100% 
09 14.01.18 190 (Ю) 10 км  слаб. снег  10/10 240 м 
[Frnb|Ns]
-7.1 -8.5 90 -7  1043.6  0.4  780  324           
12 14.01.18 190 (Ю) 10 км  слаб. снег  10/10 300 м 
[Frnb|Ns]
-6.6 -8.6 86 -6  1042.9  -0.7  780  323           
15 14.01.18 140 (ЮВ) 20000 м  {снег}  10/10 540 м 
[Sc]
-6.9 -9.1 84 -7  1042.4  -0.5  779  323      0.2     
18 14.01.18 160 (Ю) 20000 м  {снег}  9/9 540 м 
[Sc]
-8.7 -9.9 91 -8  1041.8  -0.6  779  325    -6.5  0.2     
21 14.01.18 180 (Ю) 20000 м    10/10 540 м 
[Sc]
-7.9 -9.6 88 -8  1041.5  -0.3  779  324           
00 15.01.18 210 (ЮЗ) 20000 м    10/10 600 м 
[Sc]
-8.7 -10 90 -8  1040.7  -0.8  778  325           
03 15.01.18 180 (Ю) 20000 м    9/9 480 м 
[Sc]
-9 -10.4 90 -11  1039.4  -1.3  777  325  -9.1         
06 15.01.18 210 (ЮЗ) 20000 м    10/10 240 м 
[St]
-9.8 -10.9 92 -12  1038.5  -0.8  776  326  -10      равномерный
сухой снег
100% 
09 15.01.18 180 (Ю) 20000 м    10/10 270 м 
[St]
-9 -10.5 89 -11  1037.4  -1  776  324           
12 15.01.18 170 (Ю) 20000 м    10/10 400 м 
[Sc]
-7.9 -10 85 -11  1035.1  -2.3  774  322           
15 15.01.18 180 (Ю) 20000 м    10/10 450 м 
[Sc]
-7.5 -9.8 84 -10  1033.1  -1.9  772  321           
18 15.01.18 180 (Ю) 20000 м    10/10 400 м 
[Sc]
-8 -10.3 83 -11  1031.2  -1.9  771  321    -7.5       
21 15.01.18 180 (Ю) 20000 м    10/10 480 м 
[Sc]
-7.7 -10.3 82 -11  1029.6  -1.9  770  320           
00 16.01.18 190 (Ю) 5{10}  10 км  слаб. снег  10/10 450 м 
[Sc]
-9.5 -12.2 81 -14  1028.9  -0.7  769  322           
03 16.01.18 170 (Ю) 10 км  слаб. снег  9/9 450 м 
[Sc]
-10.5 -13.1 81 -14  1027.5  -1.4  768  323  -10.5    0.0     
06 16.01.18 170 (Ю) 20000 м  {снег}  1/1 300 м 
[Sc]
-11.8 -13.9 84 -15  1026.1  -1.4  767  324  -11.8    0.0  равномерный
сухой снег
100% 
09 16.01.18 160 (Ю) 20000 м    ясно 
-10.6 -13.8 77 -15  1025  -1  766  323           
Время (UTC), дата Ветер
(°,м/с) 
Видим.   Явления Облачность Т
(°С)
Тd
(°С)
f(%) Тe
(°С)
Pmin
(гПа)
dP
(гПа)
Po
(мм)
O2
(г/м3)
Тmin Tmax R s Состояние
почвы

Для получения пояснительной информации подведите курсор к названию столбца.

ПОГОДА Старая Русса - архив

Всё, что Вы хотите узнать о погоде Старая Русса - удобно и подробно!

Выберите нужную дату (начиная с 1 января 2015* года) и нажмите кнопку "Найти".
Будут отображены архивные сводки погоды по пункту Старая Русса, начиная с указанной даты.


Отображать данные в формате CSV (для использования в таблицах Excel)


Внимание! Наш архив погоды предназначен исключительно для личного некоммерческого использования в познавательных целях. Если Вам необходимы официальные справки о состоянии погоды (для производственных, юридических, коммерческих и т.п. целей), обращайтесь в органы Росгидромета.

*Примечание: данная дата относится к архиву по метеостанциям СССР (Россия, СНГ, Балтия).
Архив по метеостанциям Зарубежной Европы и Азии (кроме Китая) хранится 10 дней, по другим регионам земного шара (Китай, Африка, Америка, Австралия, Океания) - 1 день.

Старая Русса - район местоположения метеостанции


Название, широта, долгота, высота метеостанции:
Старая Русса 58°ш. 31.3°д. 25 м над ур. моря [Российская Федерация]

Дополнительная информация

В oтличие oт бoльшинства пoгoдных сайтoв мы публикуем пoдрoбную метеoинфoрмацию в детальнoм прoфессиoнальнoм фoрмате.

Характеристики температуры и влажнoсти вoздуха измеряются на высoте 2 м в тени вдали oт зданий и деревьев.
Скoрoсть ветра измеряется на высoте 10 м (на урoвне рoста челoвека скoрoсть ветра ниже в 1.5-2 раза). Если метеoстанция нахoдится в гoрoде или в лесу, тo скoрoсть ветра занижена на 2-4 м/с пo сравнению с oткрытым местoм. Скoрoсть ветра над акватoриями крупных рек и oзёр, а также на вершинах хoлмoв на 2-5 м/с выше, чем в oбычных услoвиях.
Атмoсфернoе давление в разных тoчках местнoсти мoжет значительнo oтличаться oт давления на метеoстанции, в зависимoсти oт услoвий рельефа (при пoдъёме на 10 м давление пoнижается примернo на 1 мм рт.ст.).